Location: Cosy Dell
(34.2789°N, 117.4537°W)
Time: 20:17:02
(UTC+00:00)

Envisat - Visible Passes

Search period start: 20 September 2020 00:00
Search period end: 30 September 2020 00:00
Orbit: 764 x 766 km, 98.1° (Epoch: 20 September)

Date Brightness Start Highest point End Pass type
(mag) Time Alt. Az. Time Alt. Az. Time Alt. Az.
21 Sep 5.9 02:11:06 10° SW 02:14:54 21° W 02:18:44 10° NW visible
21 Sep 6.1 12:44:50 10° NE 12:48:02 17° E 12:51:13 10° SE visible
23 Sep 6.6 02:39:12 10° WSW 02:40:34 11° W 02:41:56 10° WNW visible
23 Sep 5.3 13:09:10 10° NE 13:13:39 31° E 13:18:05 10° SSE visible
24 Sep 5.5 01:59:12 10° SSW 02:03:28 27° W 02:07:47 10° NW visible
24 Sep 6.3 12:34:26 10° ENE 12:36:35 13° E 12:38:43 10° ESE visible
26 Sep 6.2 02:26:18 10° SW 02:29:06 15° W 02:31:55 10° WNW visible
26 Sep 5.7 12:58:09 10° NE 13:02:13 24° E 13:06:15 10° SSE visible
29 Sep 6.0 02:14:04 10° SW 02:17:39 19° W 02:21:15 10° NW visible
29 Sep 6.0 12:47:18 10° NE 12:50:47 18° E 12:54:14 10° SE visible
